Simultaneous Nadir Overpasses (SNOs) Predictions

Prediction of SNOs between GOES-17 and TERRA Satellite Orbit:

Table of predicted SNOs for the next 14.0 days since TLE Epoch: 3/6/2020
Index Date Time (GOES-17) GOES-17 Lat,Lon TERRA Lat,Lon Distance(km) Time Diff (sec)
1 03/08/2020 19:28:18 -0.00,-137.20 -0.63,-134.34 325.94 80
2 03/09/2020 07:49:42 0.00,-137.19 -0.49,-139.52 265.70 80
3 03/11/2020 07:34:50 -0.00,-137.17 0.14,-136.56 69.07 80
4 03/13/2020 07:22:38 -0.00,-137.14 0.77,-133.60 403.26 80
5 03/13/2020 19:43:53 0.00,-137.14 0.33,-138.75 182.78 80
6 03/15/2020 19:34:21 -0.00,-137.11 -0.30,-135.79 150.53 80
7 03/16/2020 07:55:45 0.00,-137.10 -0.81,-140.98 441.44 80
8 03/17/2020 19:22:09 -0.00,-137.07 -0.94,-132.83 483.20 80
9 03/18/2020 07:43:33 0.01,-137.06 -0.18,-138.02 108.90 80
10 03/20/2020 07:28:40 0.00,-137.02 0.41,-135.05 223.53 80




NCC Satellite Simultaneous Nadir Overpasses (SNOs) Prediction Service
